Track LEMUR 2 GREGROBINSON now! 10-day predictions LEMUR 2 GREGROBINSON is classified as:
1 44411U 19038AB 22138.56452207 .00015792 00000-0 77432-3 0 9992 2 44411 97.6256 108.3878 0018942 230.2341 129.7225 15.18053922158216